Probability
0 0 0 0 0 0 0 0 0 0 0 0 0 0 0 0 0 0 0 0 0 0 0 0 0 0 0 0 0 3 3 10 3 3 0 0 0 0 0 0 0 0 0 0
0 0 0 0 0 0 0 0 0 0 0 0 0 0 0 0 0 0 0 0 0 0 0 0 0 0 0 0 3 3 3 3 3 3 3 0 0 0 0 0 0 0 0 0
0 0 0 0 0 0 0 0 0 0 0 0 0 0 0 0 0 0 0 0 0 0 0 0 0 0 0 0 0 3 3 3 6 3 3 0 0 0 0 0 0 0 0 0
0 0 0 0 0 0 0 0 0 0 0 0 0 0 0 0 0 0 0 0 0 0 0 0 0 0 0 0 0 0 3 3 3 3 3 3 3 3 0 0 0 0 0 0
0 0 0 0 0 0 0 0 0 0 0 0 0 0 0 0 0 0 0 0 0 0 0 0 0 0 0 0 0 0 0 0 0 3 3 3 3 3 3 0 0 0 0 0
0 0 0 0 0 0 0 0 0 0 0 0 0 0 0 0 0 0 0 0 0 0 0 0 0 0 0 0 0 0 0 0 0 3 3 3 3 3 3 0 0 0 0 0
0 0 0 0 0 0 0 0 0 0 0 0 0 0 0 0 0 0 0 0 0 0 0 0 0 0 0 0 0 0 0 0 0 0 3 3 3 3 3 3 3 0 0 0
0 0 0 0 0 0 0 0 0 0 0 0 0 0 0 0 0 0 0 0 0 0 0 0 0 0 0 0 0 0 0 0 0 0 0 3 3 3 3 3 3 3 0 0
0 0 0 0 0 0 0 0 0 0 0 0 0 0 0 0 0 0 0 0 0 0 0 0 0 0 0 0 0 0 0 0 0 0 0 0 3 3 3 3 3 0 0 0
0 0 0 0 0 0 0 0 0 0 0 0 0 0 0 0 0 0 0 0 0 0 0 0 0 0 0 0 0 0 0 0 0 0 0 0 0 3 3 3 3 0 0 0
0 0 0 0 0 0 0 0 0 0 0 0 0 0 0 0 0 0 0 0 0 0 0 0 0 0 0 0 0 0 0 0 0 0 0 0 0 0 0 0 0 0 0 0
0 0 0 0 0 0 0 0 0 0 0 0 0 0 0 0 0 0 0 0 0 0 0 0 0 0 0 0 0 0 0 0 0 0 0 0 0 0 0 0 0 0 0 0
0 0 0 0 0 0 0 0 0 0 0 0 0 0 0 0 0 0 0 0 0 0 0 0 0 0 0 0 0 0 0 0 0 0 0 0 0 0 0 0 0 0 0 0
0 0 0 0 0 0 0 0 0 0 0 0 0 0 0 0 0 0 0 0 0 0 0 0 0 0 0 0 0 0 0 0 0 0 0 0 0 0 0 0 0 0 0 0
0 0 0 0 0 0 0 0 0 0 0 0 0 0 0 0 0 0 0 0 0 0 0 0 0 0 0 0 0 0 0 0 0 0 0 0 0 0 0 0 0 0 0 0
0 0 0 0 0 0 0 0 0 0 0 0 0 0 0 0 0 0 0 0 0 0 0 0 0 0 0 0 0 0 0 0 0 0 0 0 0 0 0 0 0 0 0 0
0 0 0 0 0 0 0 0 0 0 0 0 0 0 0 0 0 0 0 0 0 0 0 0 0 0 0 0 0 0 0 0 0 0 0 0 0 0 0 0 0 0 0 0
0 0 0 0 0 0 0 0 0 0 0 0 0 0 0 0 0 0 0 0 0 0 0 0 0 0 0 0 0 0 0 0 0 0 0 0 0 0 0 0 0 0 0 0
0 0 0 0 0 0 0 0 0 0 0 0 0 0 0 0 0 0 0 0 0 0 0 0 0 0 0 0 0 0 0 0 0 0 0 0 0 0 0 0 0 0 0 0
0 0 0 0 0 0 0 0 0 0 0 0 0 0 0 0 0 0 0 0 0 0 0 0 0 0 0 0 0 0 0 0 0 0 0 0 0 0 0 0 0 0 0 0
0 0 0 0 0 0 0 0 0 0 0 0 0 0 0 0 0 0 0 0 0 0 0 0 0 0 0 0 0 0 0 0 0 0 0 0 0 0 0 0 0 0 0 0
0 0 0 0 0 0 0 0 0 0 0 0 0 0 0 0 0 0 0 0 0 0 0 0 0 0 0 0 0 0 0 0 0 0 0 0 0 0 0 0 0 0 0 0
0 0 0 0 0 0 0 0 0 0 0 0 0 0 0 0 0 0 0 0 0 0 0 0 0 0 0 0 0 0 0 0 0 0 0 0 0 0 0 0 0 0 0 0
0 0 0 0 0 0 0 0 0 0 0 0 0 0 0 0 0 0 0 0 0 0 0 0 0 0 0 0 0 0 0 0 0 0 0 0 0 0 0 0 0 0 0 0
0 0 0 0 0 0 0 0 0 0 0 0 0 0 0 0 0 0 0 0 0 0 0 0 0 0 0 0 0 0 0 0 0 0 0 0 0 0 0 0 0 0 0 0
0 0 0 0 0 0 0 0 0 0 0 0 0 0 0 0 0 0 0 0 0 0 0 0 0 0 0 0 0 0 0 0 0 0 0 0 0 0 0 0 0 0 0 0
Height
5638 5639 5641 5643 5646 5650 5653 5656 5660 5665 5668 5673 5678 5684 5691 5697 5704 5711 5717 5724 5730 5737 5742 5746 5751 5756 5761 5765 5769 5772 5776 5779 5782 5785 5788 5791 5794 5797 5799 5801 5803 5805 5806 5807
5642 5642 5643 5645 5648 5651 5654 5657 5661 5665 5667 5672 5676 5682 5688 5694 5701 5707 5713 5719 5725 5731 5736 5740 5745 5750 5754 5758 5761 5764 5768 5771 5774 5778 5781 5784 5786 5788 5791 5792 5794 5796 5798 5799
5645 5646 5645 5647 5650 5652 5655 5658 5662 5665 5668 5671 5675 5681 5686 5691 5697 5702 5708 5715 5720 5725 5730 5734 5738 5743 5746 5750 5753 5756 5760 5763 5766 5769 5772 5775 5777 5780 5782 5784 5786 5787 5789 5790
5647 5648 5648 5650 5652 5654 5657 5660 5662 5665 5668 5671 5676 5680 5684 5688 5693 5699 5704 5710 5715 5720 5724 5728 5731 5735 5738 5742 5745 5748 5752 5755 5758 5760 5763 5766 5769 5771 5774 5775 5777 5779 5779 5780
5650 5650 5651 5652 5654 5656 5658 5661 5663 5666 5668 5672 5675 5678 5684 5686 5691 5695 5700 5704 5708 5712 5716 5720 5724 5727 5730 5734 5736 5740 5743 5746 5749 5751 5754 5757 5760 5762 5764 5766 5768 5769 5770 5771
5652 5652 5652 5653 5655 5656 5658 5661 5663 5665 5668 5672 5675 5677 5682 5684 5688 5691 5695 5698 5702 5705 5709 5712 5716 5719 5722 5725 5727 5730 5733 5737 5739 5742 5744 5747 5749 5752 5754 5755 5757 5759 5760 5761
5654 5654 5654 5654 5655 5657 5659 5661 5664 5665 5668 5671 5673 5676 5680 5682 5685 5687 5690 5693 5696 5699 5702 5705 5708 5711 5713 5716 5718 5720 5723 5726 5729 5732 5734 5737 5739 5741 5743 5745 5747 5748 5750 5751
5654 5655 5655 5655 5656 5657 5658 5661 5663 5665 5666 5669 5671 5673 5678 5679 5681 5683 5685 5688 5690 5692 5695 5697 5700 5702 5704 5706 5708 5710 5713 5716 5719 5721 5724 5726 5728 5730 5732 5733 5735 5737 5739 5740
5655 5656 5656 5656 5656 5657 5658 5659 5662 5663 5664 5666 5668 5671 5674 5675 5676 5678 5680 5681 5683 5685 5686 5688 5690 5692 5694 5696 5697 5700 5702 5705 5707 5710 5712 5714 5716 5718 5720 5722 5724 5725 5727 5728
5656 5656 5656 5656 5656 5657 5657 5658 5659 5660 5661 5663 5665 5667 5670 5670 5672 5673 5674 5675 5675 5676 5677 5679 5680 5681 5683 5685 5687 5689 5691 5694 5696 5698 5700 5702 5705 5707 5708 5710 5712 5713 5715 5716
5656 5656 5656 5656 5656 5656 5656 5656 5656 5657 5659 5660 5661 5666 5665 5665 5666 5667 5667 5668 5668 5668 5668 5668 5669 5671 5672 5674 5676 5679 5681 5682 5684 5686 5689 5691 5693 5695 5696 5698 5700 5701 5702 5703
5656 5656 5655 5656 5655 5654 5654 5654 5654 5655 5656 5656 5657 5662 5659 5659 5659 5660 5660 5660 5660 5659 5658 5658 5659 5660 5662 5663 5665 5667 5669 5671 5672 5674 5676 5679 5681 5682 5684 5686 5688 5689 5690 5691
5656 5656 5655 5655 5656 5654 5652 5652 5651 5651 5652 5652 5652 5657 5653 5653 5652 5652 5652 5651 5651 5650 5649 5649 5649 5650 5651 5652 5653 5655 5656 5658 5660 5662 5665 5667 5669 5670 5672 5674 5676 5677 5678 5679
5656 5655 5656 5655 5653 5651 5650 5649 5648 5648 5648 5648 5648 5649 5648 5646 5645 5644 5643 5642 5641 5640 5639 5639 5639 5639 5639 5640 5641 5642 5644 5646 5648 5650 5653 5655 5656 5658 5660 5662 5663 5665 5666 5666
5655 5655 5653 5652 5651 5650 5648 5647 5646 5645 5644 5643 5643 5642 5641 5639 5637 5637 5635 5633 5632 5631 5630 5628 5628 5628 5628 5629 5630 5631 5632 5634 5636 5639 5641 5643 5645 5647 5649 5650 5652 5653 5654 5655
5654 5653 5652 5651 5649 5648 5646 5644 5642 5641 5639 5638 5637 5636 5634 5632 5630 5628 5626 5624 5622 5621 5619 5618 5618 5618 5618 5618 5619 5620 5621 5623 5625 5628 5630 5631 5633 5635 5637 5638 5640 5641 5642 5643
5652 5652 5651 5650 5648 5646 5645 5642 5639 5637 5635 5634 5632 5631 5627 5625 5622 5620 5618 5615 5613 5612 5610 5608 5608 5608 5608 5608 5609 5609 5610 5611 5614 5616 5618 5620 5622 5624 5625 5627 5628 5630 5631 5632
5650 5649 5648 5647 5646 5644 5644 5638 5636 5633 5631 5628 5625 5623 5620 5618 5615 5613 5610 5607 5605 5602 5601 5599 5598 5598 5598 5598 5598 5599 5599 5601 5602 5605 5607 5608 5610 5612 5614 5616 5617 5618 5620 5621
5648 5647 5645 5644 5642 5641 5639 5635 5631 5628 5626 5622 5619 5617 5614 5611 5608 5606 5602 5599 5596 5593 5591 5590 5589 5589 5588 5588 5588 5588 5589 5590 5592 5594 5596 5597 5599 5601 5603 5605 5606 5607 5609 5610
5645 5644 5643 5641 5638 5637 5636 5631 5626 5624 5621 5617 5613 5610 5607 5604 5602 5600 5595 5591 5588 5585 5583 5581 5580 5579 5579 5578 5578 5578 5579 5580 5581 5583 5585 5586 5588 5590 5592 5594 5595 5597 5598 5599
5642 5641 5640 5637 5635 5633 5631 5626 5622 5620 5617 5611 5607 5604 5600 5597 5594 5591 5586 5583 5579 5577 5575 5573 5571 5570 5569 5568 5568 5568 5569 5570 5571 5572 5574 5576 5577 5579 5581 5583 5584 5586 5588 5589
5638 5638 5636 5634 5631 5631 5626 5622 5618 5615 5609 5605 5601 5597 5593 5590 5586 5581 5577 5574 5571 5569 5566 5564 5562 5560 5559 5559 5559 5559 5559 5559 5560 5562 5563 5565 5566 5568 5570 5571 5573 5575 5577 5578
5635 5634 5632 5631 5630 5626 5621 5617 5613 5609 5604 5599 5595 5591 5586 5582 5578 5574 5569 5566 5562 5560 5558 5556 5554 5552 5551 5551 5550 5550 5550 5550 5550 5551 5552 5554 5556 5557 5559 5561 5562 5564 5566 5568
5630 5629 5628 5626 5624 5620 5616 5612 5608 5604 5599 5594 5589 5584 5580 5575 5571 5566 5562 5558 5555 5552 5550 5548 5547 5545 5544 5543 5542 5542 5541 5541 5541 5542 5542 5543 5545 5547 5548 5550 5552 5553 5555 5557
5626 5624 5623 5621 5618 5615 5611 5607 5603 5599 5594 5589 5584 5578 5573 5568 5563 5559 5555 5552 5549 5546 5543 5541 5540 5538 5537 5536 5535 5534 5533 5533 5533 5533 5533 5533 5535 5537 5539 5540 5542 5544 5545 5547
5621 5620 5618 5616 5613 5610 5607 5602 5598 5594 5589 5584 5579 5573 5567 5561 5556 5553 5549 5546 5543 5540 5538 5536 5534 5532 5531 5529 5528 5527 5526 5526 5526 5525 5525 5526 5527 5528 5530 5532 5533 5534 5536 5538
Wind_Speed
3 7 10 13 15 17 18 19 22 24 26 30 34 35 35 39 41 42 44 45 45 45 45 44 42 41 40 40 40 40 39 39 38 40 41 41 40 39 38 36 37 37 36 36
3 6 8 11 13 14 14 16 18 21 23 26 30 33 33 36 38 41 43 44 44 44 44 45 43 43 41 41 41 41 42 42 40 40 40 41 41 41 40 39 39 39 38 38
4 4 6 9 11 12 11 13 14 17 20 22 24 27 30 33 35 37 40 42 43 43 44 46 45 44 43 42 42 42 43 43 43 42 40 40 41 42 42 41 41 41 40 39
4 4 4 7 9 10 11 12 13 15 17 18 19 21 24 30 32 34 36 39 41 43 43 43 44 45 45 44 43 43 43 43 43 43 43 43 42 42 42 43 42 42 42 41
4 4 4 5 6 8 9 11 13 15 16 17 18 19 21 25 29 32 34 36 37 40 42 42 43 44 45 45 44 44 44 45 45 44 44 44 45 44 44 44 44 44 44 43
4 3 2 4 6 8 9 10 12 14 17 17 17 18 18 20 25 28 31 34 36 38 40 42 43 43 44 45 45 45 44 45 46 46 46 46 46 45 45 45 45 46 46 46
3 2 1 3 5 6 8 9 11 14 15 15 16 18 17 18 21 25 28 31 35 38 40 41 42 44 45 45 46 46 46 46 47 48 48 48 48 47 47 47 47 48 48 47
3 2 2 2 4 6 8 10 11 13 15 16 16 17 17 18 21 24 26 30 33 36 39 41 43 45 46 47 47 46 46 46 47 48 49 49 49 49 49 49 48 48 49 49
2 2 1 2 4 6 9 11 13 14 15 16 18 18 18 20 22 24 26 29 32 35 37 39 42 44 45 46 47 46 47 46 46 47 48 49 49 49 50 50 50 50 51 51
2 0 1 2 4 5 8 10 12 14 15 16 17 17 18 19 21 24 26 28 30 33 36 38 40 42 44 45 46 46 47 47 47 48 48 49 49 49 49 50 50 51 50 50
3 2 2 3 4 5 6 8 11 13 15 15 15 16 18 19 21 22 24 27 29 31 35 38 40 41 42 44 46 46 47 47 48 48 47 48 49 48 48 49 49 50 49 50
4 4 3 4 5 6 7 8 10 13 14 15 16 15 17 21 22 23 25 27 29 32 34 36 38 39 40 42 44 46 48 48 47 48 47 48 48 48 48 48 48 48 49 49
5 5 5 5 6 6 7 9 10 12 14 16 16 17 19 21 23 25 27 28 30 31 33 35 37 39 40 42 44 46 46 47 47 47 47 47 47 47 48 48 49 49 49 49
5 5 6 7 8 8 8 10 12 14 15 17 17 18 21 23 25 26 29 30 31 32 33 34 36 38 40 41 43 44 45 46 46 47 47 48 48 48 48 48 48 48 48 48
5 6 7 8 9 9 9 11 13 15 17 18 19 21 23 25 26 27 29 30 32 33 34 35 36 36 37 39 41 43 44 45 46 47 48 48 48 48 48 48 48 48 48 47
6 7 8 9 11 11 11 13 14 15 17 18 20 21 24 26 27 27 28 29 30 32 33 34 36 36 37 38 40 42 43 45 45 45 46 47 47 47 47 47 47 47 47 47
6 8 9 10 11 12 13 15 15 16 17 19 20 22 24 26 27 27 28 29 30 31 31 33 34 35 37 37 38 39 41 43 44 44 44 44 44 45 45 46 46 46 46 46
8 10 11 12 13 14 16 17 18 18 19 21 22 23 25 26 27 28 29 30 30 30 31 32 33 33 34 36 37 38 38 39 40 41 42 43 43 43 43 42 42 43 44 43
10 11 12 14 15 16 19 20 20 21 20 22 23 24 25 26 26 27 29 30 30 30 30 30 31 33 33 34 35 36 37 38 38 39 40 41 41 42 42 41 41 40 40 41
11 12 14 15 17 18 20 22 22 23 21 23 24 24 26 27 27 27 29 29 29 29 29 29 30 31 32 34 34 35 36 37 37 38 38 39 40 40 40 41 40 39 39 39
11 12 14 16 17 19 21 23 24 24 24 25 25 26 26 27 28 29 29 29 29 29 29 29 30 30 31 32 33 34 34 35 36 37 37 38 39 39 39 39 39 39 38 38
12 13 15 17 18 20 22 24 25 26 26 26 26 26 27 28 29 30 29 28 28 29 28 28 29 29 29 29 30 31 32 33 33 34 36 36 37 37 38 38 38 38 37 36
14 15 17 18 20 21 23 24 25 27 28 28 27 27 28 29 30 30 30 29 28 28 28 28 27 27 27 28 28 29 29 30 31 33 34 35 35 35 36 36 36 36 36 36
15 17 18 19 21 23 24 26 27 28 29 30 30 29 30 30 30 29 29 28 27 27 26 27 26 26 26 26 27 27 28 28 29 30 31 32 33 33 33 34 34 34 35 35
16 18 19 20 22 23 25 27 28 28 30 31 31 31 32 31 29 28 27 27 26 26 25 25 25 25 24 25 26 26 26 27 27 28 28 28 29 29 30 31 32 31 31 32
18 19 20 21 23 24 26 28 29 29 30 31 32 33 32 31 29 27 26 25 25 24 24 24 23 23 24 24 24 24 25 25 26 27 27 27 28 28 28 29 29 30 30 31
Wind_Direction
144 176 187 192 196 198 202 205 207 209 211 214 214 216 213 214 216 218 220 221 222 224 226 229 231 233 235 236 237 236 237 235 235 236 237 237 239 241 244 245 247 251 254 257
126 161 181 189 195 200 205 205 206 209 210 214 216 218 215 213 216 218 220 223 225 226 229 231 234 235 237 238 237 237 239 239 240 241 241 242 243 244 245 247 250 252 254 257
102 146 169 182 192 201 209 209 206 209 211 218 222 223 222 216 217 220 222 225 227 229 231 233 236 236 239 241 241 241 241 240 242 243 242 244 245 247 248 250 251 253 256 257
108 130 166 187 191 199 207 211 214 216 214 216 220 221 222 221 220 223 226 228 230 232 235 236 238 240 242 244 244 245 245 244 245 247 248 249 250 250 251 252 253 255 257 259
101 119 150 179 193 200 209 214 222 225 224 226 228 230 226 227 227 228 231 232 233 234 236 238 240 241 243 245 246 248 248 248 248 249 250 251 252 253 253 255 256 257 259 261
101 114 149 187 197 203 216 223 227 227 231 236 237 238 233 235 232 232 233 236 237 238 239 241 242 244 246 247 247 248 249 249 249 250 251 252 254 255 255 256 257 259 260 263
104 123 153 187 197 209 219 228 231 233 235 239 240 242 239 239 235 234 236 239 241 241 243 244 246 246 247 249 249 251 251 251 251 251 252 253 255 256 257 258 259 260 261 263
106 124 164 200 217 225 230 233 236 241 242 242 243 245 243 244 242 241 243 244 244 245 246 247 248 249 249 250 251 252 252 252 252 252 252 253 255 256 258 259 260 261 261 263
88 130 165 231 242 247 243 240 244 246 247 250 248 250 250 252 251 250 252 252 250 249 249 250 250 250 250 251 251 252 252 252 253 253 254 255 257 257 258 260 261 262 263 264
39 111 278 278 275 268 255 246 247 249 252 253 254 255 256 257 256 257 259 259 257 255 254 254 254 252 252 251 252 252 252 253 254 255 256 257 258 259 260 261 262 264 265 265
33 18 333 314 308 297 277 260 254 253 255 259 260 264 263 265 264 264 263 264 264 262 260 258 257 256 255 254 253 253 253 254 255 256 256 257 258 258 259 260 262 262 263 264
33 22 2 329 319 305 293 280 266 262 262 262 266 271 271 270 270 269 267 267 267 267 264 260 258 256 255 255 253 254 254 256 256 257 257 257 258 258 259 259 261 262 264 265
27 18 5 349 339 324 301 289 279 274 273 272 275 279 276 275 273 271 269 269 270 269 267 263 258 257 256 256 255 254 255 256 256 257 257 257 257 257 259 260 261 262 265 265
15 9 357 348 341 333 314 298 289 285 284 281 279 279 278 275 274 273 272 271 272 271 270 267 262 261 259 258 256 255 255 255 255 255 257 257 257 258 259 260 261 263 265 266
354 354 346 341 339 334 324 311 300 293 289 288 285 282 282 280 278 278 278 276 275 273 271 268 264 262 260 258 257 257 256 256 255 255 256 257 257 259 260 261 262 263 265 266
334 337 336 336 336 334 327 320 310 301 295 292 290 287 286 286 283 282 283 281 279 276 274 270 266 264 262 261 259 258 257 256 255 256 256 257 258 259 260 262 263 264 265 266
322 327 330 333 331 332 331 324 314 306 302 297 295 291 288 289 289 287 286 285 283 280 276 272 268 266 265 264 262 261 260 258 257 257 257 258 259 260 261 262 263 264 265 265
312 318 321 326 327 329 331 328 319 308 303 301 300 297 294 292 292 292 290 289 287 284 279 273 268 266 266 266 265 264 262 260 259 258 258 258 259 260 261 263 264 264 264 264
306 312 317 322 325 328 330 329 323 317 309 306 301 299 297 297 296 294 293 292 290 287 283 278 273 269 267 267 267 266 264 262 260 259 259 259 259 260 261 262 264 263 263 264
301 308 314 319 323 327 328 328 326 322 317 312 308 304 301 300 300 297 294 293 292 289 286 283 278 274 271 269 268 267 266 264 261 259 258 259 260 260 261 261 262 263 264 265
298 307 313 318 322 327 328 329 328 325 322 318 312 308 305 304 305 303 298 295 294 290 288 286 282 279 275 271 270 269 268 265 263 261 260 261 261 261 261 261 261 262 263 265
297 306 314 318 322 324 327 328 328 327 326 322 318 315 310 308 307 306 303 299 294 290 289 289 287 282 277 274 273 272 270 267 265 265 263 262 262 262 262 261 261 261 262 263
294 304 312 317 319 321 325 326 327 328 328 326 322 319 315 311 310 308 304 301 297 292 290 291 290 285 280 277 276 274 273 270 267 266 264 262 262 262 261 260 260 260 261 262
292 302 309 314 317 319 322 324 326 328 329 329 325 321 318 314 313 310 307 304 301 297 294 292 290 288 283 279 277 276 274 272 269 267 265 262 261 260 258 257 260 260 260 260
292 300 307 311 314 317 320 323 325 327 328 329 327 323 320 318 313 310 308 306 303 300 296 293 291 288 285 282 278 276 274 272 270 268 267 263 261 260 258 258 259 260 260 260
292 299 305 309 312 316 319 322 324 326 327 327 327 324 321 318 315 312 309 308 307 303 299 296 293 290 288 284 281 278 274 272 271 271 267 263 261 259 258 259 260 261 261 261